Marina Di Campo Airport

Jump to: basic info | weather | frequencies | runways | comments

Related pages: nearby airports | nearby navaids | notams | map

Basic information (top)

Codes: EBA LIRJ
Location: lon 42.760300, lat 10.239400, elev 31 ft / 9 m msl
Status: medium_airport

Weather (top)

Current conditions for Bastia-Poretta Airport 36nm (66km) WSW (rec'd 2014/10/25 09:00Z):

LFKB 250900Z 17004KT 130V230 9999 FEW033 21/08 Q1018 NOSIG

Airport forecast for Bastia-Poretta Airport 36nm (66km) WSW (rec'd 2014/10/25 06:14Z):

TAF LFKB 250500Z 2506/2606 20004KT CAVOK 
      BECMG 2508/2510 12008KT 
      BECMG 2512/2514 04008KT FEW033 TX24/2512Z TN13/2604Z

Frequencies (top)

Verify before use: may be inaccurate or out of date.

AFIS: 123.7 MHz (AFIS)

Runways (top)

16/34: 3,114 x 75 ft (949 x 23 m) — paved — not lighted — threshold 16 displaced 479 ft (146 m) — threshold 34 displaced 285 ft (87 m)

Latest comments (top)

No comments yet for Marina Di Campo Airport

More... (top)

See also NOTAMs and nearby airports and navaids, or visit the Marina Di Campo Airport page at the main OurAirports website..